This is the latest recevied weather packets stored in our database for station/object K6GMW. If no packets are shown the sender has not sent any weather packets the latest 10 day(s).
| Time | Temp. | Humidity | Pressure | Rain* | Wind** | Luminosity | Snow |
|---|---|---|---|---|---|---|---|
| 1777475238 | 17.78° C | 96% | 1016.1 hPa | 0 mm | - | 64 W/m² | - |
| 1777474933 | 18.33° C | 96% | 1016 hPa | 0 mm | - | 68 W/m² | - |
| 1777474629 | 18.33° C | 96% | 1015.6 hPa | 0 mm | - | 65 W/m² | - |
| 1777474326 | 18.33° C | 96% | 1015.6 hPa | 0 mm | - | 59 W/m² | - |
| 1777474023 | 18.33° C | 96% | 1015.5 hPa | 0 mm | - | 115 W/m² | - |
| 1777473721 | 18.33° C | 96% | 1015.2 hPa | 0 mm | - | 82 W/m² | - |
| 1777473417 | 18.33° C | 96% | 1015.4 hPa | 0 mm | - | 132 W/m² | - |
| 1777473113 | 18.33° C | 96% | 1015.4 hPa | 0 mm | - | 117 W/m² | - |
| 1777472809 | 18.33° C | 96% | 1015.6 hPa | 0 mm | - | 86 W/m² | - |
| 1777472506 | 18.33° C | 96% | 1015.6 hPa | 0 mm | - | 93 W/m² | - |
| 1777472203 | 18.33° C | 96% | 1015.7 hPa | 0 mm | - | 80 W/m² | - |
| 1777471898 | 18.33° C | 96% | 1015.3 hPa | 0 mm | - | 74 W/m² | - |
| 1777471596 | 18.33° C | 96% | 1015.3 hPa | 0 mm | - | 90 W/m² | - |
| 1777471292 | 18.89° C | 96% | 1015.4 hPa | 0 mm | - | 60 W/m² | - |
| 1777470988 | 18.89° C | 96% | 1015.4 hPa | 0 mm | - | 50 W/m² | - |
| 1777470686 | 18.89° C | 96% | 1015.4 hPa | 0 mm | - | 59 W/m² | - |
| 1777470381 | 18.89° C | 96% | 1015.5 hPa | 0 mm | - | 51 W/m² | - |
| 1777470079 | 18.89° C | 96% | 1015.4 hPa | 0 mm | - | 39 W/m² | - |
| 1777469775 | 18.89° C | 96% | 1015.3 hPa | 0 mm | - | 40 W/m² | - |
| 1777469471 | 19.44° C | 96% | 1015.1 hPa | 0 mm | - | 34 W/m² | - |
| 1777469171 | 19.44° C | 96% | 1015.1 hPa | 0 mm | - | 21 W/m² | - |
| 1777468871 | 19.44° C | 96% | 1015.1 hPa | 0 mm | - | 25 W/m² | - |
| 1777468568 | 20° C | 96% | 1014.9 hPa | 0 mm | - | 21 W/m² | - |
| 1777468264 | 20° C | 96% | 1014.9 hPa | 0 mm | - | 20 W/m² | - |
| 1777467961 | 20° C | 96% | 1014.7 hPa | 0 mm | - | 20 W/m² | - |
* Rain latest hour (hover to see other rain measurements)
** Current wind speed in m/s (hover to see current wind gust speed)